• In Austria
  • List of Countries
  • For 7 days
  • Water Temperature
  • Satellite Maps
  • Weather Map
  • News
  • Weather Widgets
  • user-avatar
    Login

    Hourly Weather Campeche

    Today, 19 September, Wednesday

    Time Temperature Precipitation Wind Pressure Humidity
    00:00 +27°C° 0 mm 1 mps 756 mmHg 82%
    01:00 +27°C° 0 mm 1 mps 756 mmHg 84%
    02:00 +26°C° 0 mm 1 mps 755 mmHg 85%
    03:00 +26°C° 0 mm 1 mps 755 mmHg 87%
    04:00 +26°C° 0 mm 1 mps 756 mmHg 89%
    05:00 +25°C° 0 mm 1 mps 756 mmHg 90%
    06:00 +25°C° 0 mm 1 mps 756 mmHg 92%
    07:00 +28°C° 0 mm 1 mps 756 mmHg 79%
    08:00 +31°C° 0 mm 1 mps 757 mmHg 66%
    09:00 +34°C° 0 mm 1 mps 757 mmHg 54%
    10:00 +36°C° 0 mm 1 mps 757 mmHg 48%
    11:00 +37°C° 0 mm 1 mps 756 mmHg 42%
    12:00 +40°C° 0 mm 1 mps 756 mmHg 37%
    13:00 +39°C° 0 mm 1 mps 755 mmHg 40%
    14:00 +37°C° 0 mm 1 mps 755 mmHg 42%
    15:00 +36°C° 0 mm 1 mps 754 mmHg 45%
    16:00 +34°C° 0.1 mm 1 mps 754 mmHg 54%
    17:00 +32°C° 0.1 mm 1 mps 754 mmHg 64%
    18:00 +30°C° 0.1 mm 1 mps 754 mmHg 73%
    19:00 +29°C° 0.2 mm 1 mps 755 mmHg 79%
    20:00 +28°C° 0.2 mm 1 mps 755 mmHg 86%
    21:00 +27°C° 0.2 mm 1 mps 756 mmHg 92%
    22:00 +27°C° 0.1 mm 1 mps 756 mmHg 93%
    23:00 +27°C° 0.1 mm 1 mps 756 mmHg 94%

    Tomorrow, 20 September, Thursday

    Time Temperature Precipitation Wind Pressure Humidity
    00:00 +27°C° 0.1 mm 1 mps 756 mmHg 95%
    01:00 +26°C° 0.1 mm 1 mps 756 mmHg 95%
    02:00 +26°C° 0.1 mm 1 mps 756 mmHg 95%
    03:00 +26°C° 0.1 mm 1 mps 755 mmHg 96%
    04:00 +26°C° 0 mm 1 mps 756 mmHg 96%
    05:00 +26°C° 0 mm 1 mps 756 mmHg 97%
    06:00 +26°C° 0 mm 1 mps 756 mmHg 98%
    07:00 +28°C° 0 mm 1 mps 756 mmHg 86%
    08:00 +30°C° 0 mm 2 mps 757 mmHg 74%
    09:00 +34°C° 0 mm 2 mps 757 mmHg 63%
    10:00 +36°C° 0 mm 2 mps 757 mmHg 55%
    11:00 +38°C° 0 mm 2 mps 757 mmHg 47%
    12:00 +40°C° 0 mm 2 mps 756 mmHg 39%
    13:00 +39°C° 0 mm 2 mps 756 mmHg 44%
    14:00 +37°C° 0 mm 2 mps 755 mmHg 48%
    15:00 +36°C° 0 mm 2 mps 755 mmHg 53%
    16:00 +35°C° 0.1 mm 2 mps 755 mmHg 58%
    17:00 +32°C° 0.1 mm 2 mps 755 mmHg 64%
    18:00 +31°C° 0.1 mm 2 mps 755 mmHg 69%
    19:00 +30°C° 0.1 mm 2 mps 756 mmHg 71%
    20:00 +30°C° 0.1 mm 2 mps 757 mmHg 73%
    21:00 +29°C° 0.1 mm 2 mps 757 mmHg 75%
    22:00 +29°C° 0 mm 2 mps 757 mmHg 78%
    23:00 +28°C° 0 mm 1 mps 757 mmHg 81%

    Day after tomorrow, 21 September, Friday

    Time Temperature Precipitation Wind Pressure Humidity
    00:00 +28°C° 0 mm 1 mps 758 mmHg 84%
    01:00 +27°C° 0 mm 1 mps 757 mmHg 88%
    02:00 +27°C° 0 mm 1 mps 757 mmHg 92%
    03:00 +26°C° 0 mm 1 mps 757 mmHg 96%
    04:00 +26°C° 0 mm 1 mps 757 mmHg 96%
    05:00 +26°C° 0 mm 1 mps 757 mmHg 97%
    06:00 +26°C° 0 mm 1 mps 757 mmHg 97%
    07:00 +28°C° 0 mm 1 mps 757 mmHg 86%
    08:00 +30°C° 0 mm 2 mps 758 mmHg 75%
    09:00 +32°C° 0 mm 2 mps 758 mmHg 63%
    10:00 +35°C° 0 mm 2 mps 758 mmHg 56%
    11:00 +37°C° 0 mm 2 mps 757 mmHg 48%
    12:00 +39°C° 0 mm 2 mps 757 mmHg 40%
    13:00 +39°C° 0 mm 2 mps 756 mmHg 40%
    14:00 +39°C° 0 mm 2 mps 755 mmHg 40%
    15:00 +39°C° 0 mm 2 mps 755 mmHg 40%
    16:00 +37°C° 0 mm 2 mps 755 mmHg 44%
    17:00 +35°C° 0 mm 1 mps 755 mmHg 49%
    18:00 +34°C° 0 mm 1 mps 755 mmHg 53%
    19:00 +33°C° 0 mm 1 mps 756 mmHg 58%
    20:00 +31°C° 0 mm 1 mps 757 mmHg 62%
    21:00 +30°C° 0 mm 2 mps 757 mmHg 67%
    22:00 +30°C° 0 mm 1 mps 757 mmHg 71%
    23:00 +29°C° 0 mm 1 mps 757 mmHg 76%

    22 September, Saturday

    Time Temperature Precipitation Wind Pressure Humidity
    00:00 +28°C° 0 mm 1 mps 757 mmHg 80%
    01:00 +28°C° 0 mm 1 mps 757 mmHg 84%
    02:00 +27°C° 0 mm 1 mps 757 mmHg 88%
    03:00 +27°C° 0 mm 1 mps 756 mmHg 92%
    04:00 +26°C° 0 mm 1 mps 756 mmHg 94%
    05:00 +26°C° 0 mm 1 mps 757 mmHg 96%
    06:00 +26°C° 0 mm 1 mps 757 mmHg 98%
    07:00 +28°C° 0 mm 1 mps 757 mmHg 88%
    08:00 +29°C° 0 mm 1 mps 757 mmHg 79%
    09:00 +31°C° 0 mm 2 mps 758 mmHg 70%
    10:00 +35°C° 0 mm 2 mps 757 mmHg 59%
    11:00 +37°C° 0 mm 2 mps 757 mmHg 49%
    12:00 +39°C° 0 mm 2 mps 756 mmHg 38%
    13:00 +39°C° 0 mm 2 mps 755 mmHg 39%
    14:00 +37°C° 0 mm 1 mps 754 mmHg 41%
    15:00 +37°C° 0 mm 1 mps 754 mmHg 42%
    16:00 +35°C° 0.2 mm 1 mps 754 mmHg 51%
    17:00 +33°C° 0.2 mm 1 mps 754 mmHg 59%
    18:00 +31°C° 0.2 mm 1 mps 755 mmHg 68%
    19:00 +30°C° 1.4 mm 1 mps 755 mmHg 75%
    20:00 +28°C° 1.4 mm 1 mps 756 mmHg 82%
    21:00 +27°C° 1.4 mm 1 mps 757 mmHg 89%
    22:00 +27°C° 0 mm 1 mps 756 mmHg 91%
    23:00 +26°C° 0 mm 1 mps 756 mmHg 93%

    23 September, Sunday

    Time Temperature Precipitation Wind Pressure Humidity
    00:00 +26°C° 0 mm 1 mps 756 mmHg 94%
    01:00 +26°C° 0 mm 1 mps 756 mmHg 96%
    02:00 +25°C° 0 mm 1 mps 755 mmHg 97%
    03:00 +23°C° 0 mm 0 mps 755 mmHg 98%
    04:00 +23°C° 0 mm 0 mps 756 mmHg 98%
    05:00 +23°C° 0 mm 0 mps 756 mmHg 98%
    06:00 +23°C° 0 mm 0 mps 756 mmHg 99%
    07:00 +27°C° 0 mm 1 mps 756 mmHg 89%
    08:00 +29°C° 0 mm 1 mps 757 mmHg 79%
    09:00 +31°C° 0 mm 1 mps 757 mmHg 70%
    10:00 +33°C° 0 mm 1 mps 757 mmHg 60%
    11:00 +36°C° 0 mm 1 mps 756 mmHg 50%
    12:00 +39°C° 0 mm 1 mps 756 mmHg 40%
    13:00 +37°C° 0 mm 1 mps 755 mmHg 42%
    14:00 +37°C° 0 mm 2 mps 755 mmHg 45%
    15:00 +36°C° 0 mm 2 mps 754 mmHg 47%
    16:00 +34°C° 1.5 mm 2 mps 754 mmHg 57%
    17:00 +31°C° 1.5 mm 1 mps 755 mmHg 68%
    18:00 +29°C° 1.5 mm 1 mps 755 mmHg 78%
    19:00 +28°C° 1.6 mm 1 mps 755 mmHg 83%
    20:00 +27°C° 1.6 mm 1 mps 756 mmHg 87%
    21:00 +26°C° 1.6 mm 1 mps 757 mmHg 92%
    22:00 +26°C° 0.2 mm 1 mps 757 mmHg 93%
    23:00 +26°C° 0.2 mm 1 mps 757 mmHg 93%

    24 September, Monday

    Time Temperature Precipitation Wind Pressure Humidity
    00:00 +25°C° 0.2 mm 1 mps 756 mmHg 94%
    01:00 +25°C° 0 mm 1 mps 756 mmHg 95%
    02:00 +23°C° 0 mm 0 mps 756 mmHg 95%
    03:00 +23°C° 0 mm 0 mps 756 mmHg 96%
    04:00 +25°C° 0 mm 1 mps 756 mmHg 96%
    05:00 +25°C° 0 mm 1 mps 757 mmHg 96%
    06:00 +25°C° 0 mm 1 mps 757 mmHg 97%
    07:00 +27°C° 0 mm 1 mps 757 mmHg 88%
    08:00 +29°C° 0 mm 1 mps 757 mmHg 79%
    09:00 +31°C° 0 mm 1 mps 758 mmHg 70%
    10:00 +33°C° 0.2 mm 1 mps 757 mmHg 62%
    11:00 +34°C° 0.2 mm 1 mps 757 mmHg 55%
    12:00 +36°C° 0.2 mm 1 mps 756 mmHg 47%
    13:00 +37°C° 0.3 mm 2 mps 756 mmHg 49%
    14:00 +36°C° 0.3 mm 2 mps 755 mmHg 51%
    15:00 +35°C° 0.3 mm 2 mps 755 mmHg 53%
    16:00 +34°C° 0.1 mm 2 mps 755 mmHg 59%
    17:00 +31°C° 0.1 mm 2 mps 756 mmHg 64%
    18:00 +30°C° 0.1 mm 2 mps 756 mmHg 70%
    19:00 +29°C° 0 mm 1 mps 757 mmHg 75%
    20:00 +28°C° 0 mm 1 mps 757 mmHg 80%
    21:00 +27°C° 0 mm 1 mps 758 mmHg 85%
    22:00 +27°C° 0 mm 1 mps 758 mmHg 87%
    23:00 +27°C° 0 mm 1 mps 758 mmHg 88%
    Show more